Location: Arbon
(43.0005°N, 0.7472°E)
Time: 01:13:43
(UTC+00:00)

S-56A Canister/Altair - Pass Details

Date: 11 December 2020
Orbit: 633 x 2499 km, 38.9° (Epoch: 19 January)

Event Time Altitude Azimuth Distance (km) Brightness Sun altitude
Rises 16:41:05 0° 252° (WSW) 6,160 14.5 -3.8°
Reaches altitude 10° 16:45:09 10° 250° (WSW) 5,160 13.6 -4.5°
Maximum altitude 17:00:04 71° 171° (S) 2,327 10.0 -6.9°
Drops below altitude 10° 17:11:33 10° 90° (E) 4,078 10.7 -8.8°
Enters shadow 17:12:31 - 90° (E) 4,337 10.8 -9.0°
